This is the latest recevied weather packets stored in our database for station/object K0NV. If no packets are shown the sender has not sent any weather packets the latest 1 day(s).
| Time | Temp. | Humidity | Pressure | Rain* | Wind** | Luminosity | Snow |
|---|---|---|---|---|---|---|---|
| 1778083520 | 11.67° C | 70% | 1018.7 hPa | 0 mm | - | 614 W/m² | - |
| 1778082915 | 11.67° C | 71% | 1018.7 hPa | 0 mm | - | 388 W/m² | - |
| 1778080898 | 10.56° C | 73% | 1018.1 hPa | 0 mm | - | 337 W/m² | - |
| 1778080293 | 10° C | 77% | 1018.3 hPa | 0 mm | - | 335 W/m² | - |
| 1778079990 | 10° C | 76% | 1018.6 hPa | 0 mm | - | 295 W/m² | - |
| 1778079384 | 10° C | 79% | 1018.5 hPa | 0 mm | - | 276 W/m² | - |
| 1778078778 | 10° C | 78% | 1018.6 hPa | 0 mm | - | 206 W/m² | - |
| 1778076662 | 8.89° C | 87% | 1018.3 hPa | 0 mm | - | 147 W/m² | - |
| 1778076056 | 8.33° C | 89% | 1018.4 hPa | 0 mm | - | 120 W/m² | - |
| 1778074539 | 7.78° C | 92% | 1017.9 hPa | 0 mm | - | 101 W/m² | - |
| 1778073933 | 7.78° C | 95% | 1017.6 hPa | 0 mm | - | 161 W/m² | - |
| 1778073327 | 7.78° C | 97% | 1017.9 hPa | 0 mm | - | 117 W/m² | - |
| 1778072418 | 7.22° C | 98% | 1017.9 hPa | 0 mm | - | 74 W/m² | - |
| 1778071209 | 7.22° C | 98% | 1018 hPa | 0 mm | - | 39 W/m² | - |
| 1778069696 | 6.67° C | 99% | 1018.1 hPa | 0 mm | - | 12 W/m² | - |
| 1778067579 | 6.67° C | 99% | 1017.7 hPa | 0 mm | - | 6 W/m² | - |
| 1778065460 | 6.67° C | 99% | 1016.6 hPa | 0 mm | - | 0 W/m² | - |
| 1778064853 | 6.67° C | 99% | 1016.4 hPa | 0 mm | - | 0 W/m² | - |
| 1778063946 | 6.67° C | 99% | 1016 hPa | 0 mm | - | 0 W/m² | - |
| 1778063340 | 6.67° C | 99% | 1015.9 hPa | 0 mm | - | 0 W/m² | - |
| 1778062735 | 6.67° C | 98% | 1015.8 hPa | 0 mm | - | 0 W/m² | - |
| 1778062431 | 6.67° C | 98% | 1015.9 hPa | 0 mm | - | 0 W/m² | - |
| 1778062129 | 6.67° C | 98% | 1015.8 hPa | 0 mm | - | 0 W/m² | - |
| 1778061525 | 6.67° C | 97% | 1015.6 hPa | 0 mm | - | 0 W/m² | - |
| 1778060919 | 6.67° C | 97% | 1015.3 hPa | 0 mm | - | 0 W/m² | - |
* Rain latest hour (hover to see other rain measurements)
** Current wind speed in m/s (hover to see current wind gust speed)